Regional Weather Roundup
Issued by NWS

Home | Current Version | Previous Version | Text Only | Print | Product List | Glossary Off
Versions: 1 2 3 4 5 6 7 8 9 10 11 12 13 14 15 16 17 18 19 20 21 22 23 24 25 26 27 28 29 30 31 32 33 34 35 36 37 38 39 40 41 42 43 44 45 46 47 48 49 50

000
ASUS43 KLSX 272207
RWRMO

WEATHER SUMMARY FOR MISSOURI
NATIONAL WEATHER SERVICE SPRINGFIELD MO
500 PM CDT SUN JUL 27 2014

NOTE: "FAIR" INDICATES FEW OR NO CLOUDS BELOW 12,000 FEET WITH NO
       SIGNIFICANT WEATHER AND/OR OBSTRUCTIONS TO VISIBILITY.
       CURRENT SKY AND/OR WEATHER CONDITIONS ARE NOT AVAILABLE FOR
       CHILLICOTHE AND FARMINGTON.

MOZ001>031-035>038-043-044-053-054-272300-
...NORTHERN AND WESTERN MISSOURI...

CITY           SKY/WX    TMP DP  RH WIND       PRES   REMARKS
KANSAS CTY INT MOSUNNY   85  57  38 NW15G28   30.06S
KANSAS C DTWN  MOSUNNY   88  55  32 N14G29    30.03F
LEE`S SUMMIT   PTSUNNY   86  53  32 NW18G26   30.05S
ST JOSEPH      SUNNY     85  60  42 N15G22    30.05S HAZE
CHILLICOTHE      N/A     84  57  39 NW13G20   30.02R
KIRKSVILLE     MOSUNNY   83  58  42 NW13G25   29.99R

$$
MOZ066>068-077>081-088>096-101>105-272300-
...SOUTHWEST MISSOURI...

CITY           SKY/WX    TMP DP  RH WIND       PRES   REMARKS
SPRINGFIELD    CLOUDY    87  61  41 NW8       30.05R
JOPLIN         LGT RAIN  82  71  69 W5        30.07F

$$
MOZ032>034-039>042-045>050-055>058-069>072-272300-
...CENTRAL MISSOURI...

CITY           SKY/WX    TMP DP  RH WIND       PRES   REMARKS
COLUMBIA       MOSUNNY   88  55  32 W17G26    29.97S
JEFFERSON CITY MOSUNNY   88  54  31 W17G26    29.95S
ROLLA          MOSUNNY   89  51  27 W23       29.96R
SEDALIA        MOSUNNY   86  57  37 NW14G26   30.02S
WHITEMAN AFB   MOSUNNY   87  42  20 NW13G18   30.02S
OSAGE BEACH      N/A     88  55  33 NW7       29.99R

$$
MOZ051-052-059>065-272300-
...EAST CENTRAL MISSOURI...

CITY           SKY/WX    TMP DP  RH WIND       PRES   REMARKS
ST LOUIS INTL  MOSUNNY   91  58  32 W25G31    29.89S HX  90
SPIRIT OF STL  SUNNY     91  58  32 NW15      29.89R HX  90
ST CHARLES     SUNNY     87  56  34 NW17G29   29.88S

$$
MOZ072>076-082>087-097>100-106>115-272300-
...SOUTH CENTRAL AND SOUTHEAST MISSOURI...

CITY           SKY/WX    TMP DP  RH WIND       PRES   REMARKS
CAPE GIRARDEAU PTSUNNY   92  69  47 NW13      29.86S HX  97
FARMINGTON     PTSUNNY   90  63  40 W9        29.93S HX  90
POPLAR BLUFF   PTSUNNY   93  74  53 NW5       29.87S HX 103
WEST PLAINS    PTSUNNY   88  62  41 NW7       30.00R

$$



USA.gov is the U.S. government's official web portal to all federal, state and local government web resources and services.